Simultaneous Nadir Overpasses (SNOs) Predictions

Prediction of SNOs between LANDSAT-8 and NOAA-19 Satellite Orbit:

Table of predicted SNOs for the next 14.0 days since TLE Epoch: 1/7/2023
Index Date (LANDSAT-8) Time (LANDSAT-8) Lat,Lon (LANDSAT-8) SZA (LANDSAT-8 ) Date (NOAA-19) Time (NOAA-19) Lat,Lon (NOAA-19) SZA (NOAA-19 ) Distance(km) Time Diff (sec)
1 01/08/2023 11:45:21 80.90, 40.34 104.66 01/08/2023 11:44:54 80.91, 40.45 104.67 2.49 27
2 01/08/2023 12:34:47 -80.92,-151.71 75.30 01/08/2023 12:35:57 -80.91,-151.75 75.29 1.77 70
3 01/10/2023 18:08:30 80.91, -55.28 104.34 01/10/2023 18:08:37 80.91, -55.12 104.36 2.80 7
4 01/12/2023 23:42:13 -80.92, 41.34 76.03 01/12/2023 23:41:26 -80.91, 41.40 76.04 1.12 47
5 01/13/2023 00:31:39 80.92,-151.00 103.97 01/13/2023 00:32:21 80.91,-151.12 103.98 2.07 42
6 01/15/2023 06:05:22 -80.92, -54.47 76.44 01/15/2023 06:05:09 -80.91, -54.40 76.44 1.18 13
7 01/17/2023 11:39:04 80.90, 41.94 103.10 01/17/2023 11:37:50 80.92, 42.05 103.09 2.44 74
8 01/17/2023 12:28:31 -80.91,-150.39 76.91 01/17/2023 12:28:52 -80.91,-150.28 76.88 2.16 21
9 01/19/2023 18:02:12 80.91, -53.75 102.64 01/19/2023 18:01:33 80.92, -53.72 102.63 0.89 39



Historial Predications of SNOs between LANDSAT-8 and NOAA-19
